Miscellaneous Local Product
Issued by NWS North Platte, NE

Home | Current Version | Previous Version | Graphics & Text | Print | Product List | Glossary On
Versions: 1 2 3 4 5 6 7 8 9 10 11 12 13 14 15 16 17 18 19 20 21 22 23 24 25 26 27 28 29 30 31 32 33 34 35 36 37 38 39 40 41 42 43 44 45 46 47 48 49 50
000
AXUS43 KLBF 261910
MISLBF


WESTERN AND NORTH CENTRAL NEBRASKA HOURLY WEATHER ROUNDUP
NATIONAL WEATHER SERVICE NORTH PLATTE NE
200 PM CDT THU MAR 26 2015

***STATIONS NOT REPORTING VARIABLES SUCH AS SKY/WEATHER OR
PRESSURE ARE PROVIDED BY THE NEBRASKA DEPARTMENT OF
ROADS...RAWS...AND APRS NETWORKS...AND ARE NOT UNDER
NATIONAL WEATHER SERVICE QUALITY CONTROL***

...OBSERVATIONS IN AND NEAR THE EASTERN PANHANDLE OF NEBRASKA...

CITY           SKY/WX    TMP DP  RH WIND       PRES   REMARKS
PINE RIDGE     CLOUDY    52  26  36 N16G22    30.08F
CHADRON        CLOUDY    51  30  44 NW23G29   30.11F
ALLIANCE       CLOUDY    50  30  46 NW21G33   30.11F
SIDNEY         PTSUNNY   55  25  31 NW25G41   30.13F
WHITECLAY        N/A     50  27  40 NW15        N/A
CRESCENT LAKE    N/A     52  26  36 NW20G35     N/A
BIG SPRINGS      N/A     55  31  41 NW16        N/A
$$

...OBSERVATIONS IN NORTH CENTRAL NEBRASKA...

CITY           SKY/WX    TMP DP  RH WIND       PRES   REMARKS
VALENTINE      PTSUNNY   51  27  39 N8        30.04S
THEDFORD       CLOUDY    54  28  36 NW25G32   30.03S
AINSWORTH      PTSUNNY   47  27  44 CALM      30.04F
O`NEILL        LGT SNOW  34  33  96 E7        30.12F VSB 3/4 WCI  28
ORD            CLOUDY    45  24  43 S9        30.07F
BROKEN BOW     MOSUNNY   52  28  39 SW8       30.04F
BROWNLEE         N/A     56  28  34 NW32        N/A
SPRINGVIEW       N/A     43  32  65 E6          N/A
BREWSTER         N/A     55  26  33 E8          N/A
ROSE             N/A     47  28  48 SE8         N/A
NEWPORT          N/A     37  35  90 E13         N/A  WCI  29
SARGENT          N/A     45  27  49 SW9         N/A
COMSTOCK         N/A     47  26  43 S8          N/A
EWING            N/A     36  32  87 NE3         N/A
$$

...OBSERVATIONS IN SOUTHWEST NEBRASKA AND FAR NORTHEAST COLORADO...

CITY           SKY/WX    TMP DP  RH WIND       PRES   REMARKS
WRAY           MOCLDY    58  24  26 NW22G32   30.13F
HOLYOKE        FAIR      59  27  29 NW21G31   30.12F
IMPERIAL         N/A     57  26  30 NW26G37   30.09F
OGALLALA       CLOUDY    58  28  31 NW30G36   30.08S
NORTH PLATTE   CLOUDY    57  26  30 NW26G33   30.04F
MCCOOK         PTSUNNY   60  25  26 NW13      30.05F
LEXINGTON      PTSUNNY   55  29  37 SW15G21   30.06F
PAXTON           N/A     56  31  39 NW12        N/A
SUTHERLAND       N/A     51  20  30 W22         N/A
BRADY            N/A     57  31  38 SW3G15      N/A
GOTHENBURG       N/A     48  25  40 SW8         N/A
CALLAWAY         N/A     49  30  47 SW15        N/A
$$

...NORTH PLATTE AREA...

CITY           SKY/WX    TMP DP  RH WIND       PRES   REMARKS
AIRPORT        CLOUDY    57  26  30 NW26G33   30.04F
DOWNTOWN         N/A     57  28  32 NW13G25     N/A
$$

...SOME WEATHER OBSERVATIONS FROM AROUND THE REGION...

CITY           SKY/WX    TMP DP  RH WIND       PRES   REMARKS
DENVER         PTSUNNY   55  19  24 W3        30.17F
LARAMIE        CLOUDY    45  20  36 NW20G26   30.19F
CHEYENNE       CLOUDY    51  19  28 NW28G40   30.16F
SCOTTSBLUFF    CLOUDY    53  30  41 NW28G38   30.14F
RAPID CITY     PTSUNNY   50  30  46 N23G31    30.10R
PIERRE         LGT SNOW  32  30  92 SW3       30.19R FOG
WINNER         LGT SNOW  33  30  88 NE13      30.15R VSB 1   WCI  24
SIOUX FALLS    CLOUDY    39  23  52 N8        30.15F WCI  33
OMAHA          PTSUNNY   47  23  38 VRB5      30.14F
GRAND ISLAND   CLOUDY    46  27  47 S10       30.11F
KANSAS CITY    MOSUNNY   47  28  47 NW10      30.15F
WICHITA        MOSUNNY   51  28  41 N7        30.20F
HAYS           SUNNY     55  30  38 SW14      30.15F
LIBERAL        SUNNY     59  36  41 W10G18    30.20F
GOODLAND       PTSUNNY   59  25  27 N23G32    30.12F
$$



USA.gov is the U.S. government's official web portal to all federal, state and local government web resources and services.